Regional Weather Roundup
Issued by NWS Goodland, KS

Home | Current Version | Previous Version | Graphics & Text | Print | Product List | Glossary Off
Versions: 1 2 3 4 5 6 7 8 9 10 11 12 13 14 15 16 17 18 19 20 21 22 23 24 25 26 27 28 29 30 31 32 33 34 35 36 37 38 39 40 41 42 43 44 45 46 47 48 49 50

000
ASUS43 KGLD 270408
RWRGLD

GOODLAND FORECAST AREA HOURLY WEATHER ROUNDUP
NATIONAL WEATHER SERVICE GOODLAND KS
900 PM MST MON JAN 26 2015

...OFFICIAL OBSERVATIONS...

CITY           SKY/WX    TMP DP  RH WIND       PRES   REMARKS
GOODLAND KS    CLEAR     43  31  62 SW9       30.16S
HILL CITY KS   CLEAR     44  29  55 W7        30.10R
IMPERIAL NEB   CLEAR     43  29  57 W12       30.10F
MCCOOK NEB     CLEAR     43  29  57 W9        30.09S
AKRON CO       PTCLDY    50  27  40 SW13      30.18R
BURLINGTON CO  CLEAR     40  30  67 W12       30.18S
LIMON CO       CLEAR     28  24  85 N6        30.24S
$$

...UNOFFICIAL OBSERVATIONS...

CITY           SKY/WX    TMP DP  RH WIND       PRES   REMARKS
COLBY KS       CLEAR     37  34  87 W7        30.14S
GOVE KS          N/A     39  32  76 MISG        N/A
NORTON KS      CLEAR     37  27  65 SW10      30.07F
SHARON SPRINGS   N/A     38  30  72 W8          N/A
KIT CARSON CO    N/A     38  27  63 MISG        N/A
$$


USA.gov is the U.S. government's official web portal to all federal, state and local government web resources and services.